Location: Frydek-Mistek
(49.6830°N, 18.3330°E)
Time: 05:05:06
(UTC+02:00)

ISS - Pass Details

Date: 23 May 2021
Orbit: 417 x 422 km, 51.6° (Epoch: 13 June)

Event Time Altitude Azimuth Distance (km) Brightness Sun altitude
Rises 23:47:25 0° 288° (WNW) 2,369 0.5 -18.5°
Reaches altitude 10° 23:49:34 10° 283° (WNW) 1,504 -0.6 -18.6°
Enters shadow 23:52:20 43° 237° (WSW) 604 -3.2 -18.7°
